Regional Weather Roundup
Issued by NWS Columbia, SC

Home | Current Version | Previous Version | Text Only | Print | Product List | Glossary On
Versions: 1 2 3 4 5 6 7 8 9 10 11 12 13 14 15 16 17 18 19 20 21 22 23 24 25 26 27 28 29 30 31 32 33 34 35 36 37 38 39 40 41 42 43 44 45 46 47 48 49 50
000
ASUS42 KCAE 111010
RWRCAE
REGIONAL WEATHER ROUNDUP
NATIONAL WEATHER SERVICE COLUMBIA SC
500 AM EST SUN DEC 11 2016

NOTE: "FAIR" INDICATES FEW OR NO CLOUDS BELOW 12,000 FEET WITH NO
SIGNIFICANT WEATHER AND/OR OBSTRUCTIONS TO VISIBILITY.

NOT ALL STATIONS ARE QUALITY CONTROLLED BY THE NATIONAL
WEATHER SERVICE. USE DATA WITH CAUTION...ESPECIALLY
DEWPOINT OBSERVATIONS.

SCZ001>056-GAZ040-063>065-077-111100-
...UPSTATE SOUTH CAROLINA...

CITY           SKY/WX    TMP DP  RH WIND       PRES   REMARKS
ANDERSON       CLEAR     27  21  78 CALM      30.43F
LIBERTY        SUNNY     21  19  92 NE3       30.41F
SPARTANBURG    CLEAR     27  21  80 CALM      30.44S
CLEMSON        CLEAR     30  22  72 CALM      30.43F
GREENVILLE     CLEAR     31  20  63 N3        30.43F
GREENWOOD      CLEAR     24  21  88 CALM      30.46R
GREER          CLEAR     25  20  81 N3        30.43S
ROCK HILL      CLEAR     22  20  92 CALM      30.46F
CHESTER        CLOUDY    27  21  80 CALM      30.46F
LAURENS          N/A     23  23 100 N3        30.45S


...CENTRAL SOUTH CAROLINA...

CITY           SKY/WX    TMP DP  RH WIND       PRES   REMARKS
COLUMBIA APT   PTCLDY    28  23  81 CALM      30.46S
COLUMBIA OWENS PTCLDY    28  24  85 CALM      30.48S
MCENTIRE ANGB  CLEAR     23  21  92 CALM      30.46S
ORANGEBURG     PTCLDY    29  25  85 CALM      30.45F
SUMTER SHAW    CLEAR     26  21  83 CALM      30.45S
NEWBERRY       CLOUDY    27  23  86 CALM      30.48S
AIKEN          CLOUDY    28  25  86 CALM      30.46S
MANNING        FAIR      27  23  86 CALM      30.47S
LANCASTER      SUNNY     23  23 100 NE3       30.47F
WINNSBORO      CLOUDY    30  23  74 NE5       30.46R WCI  25


...EASTERN AND COASTAL SOUTH CAROLINA...

CITY           SKY/WX    TMP DP  RH WIND       PRES   REMARKS
MYRTLE BEACH   CLEAR     30  19  64 NE7       30.49F WCI  23
N MYRTLE BCH   CLEAR     30  21  69 NE6       30.47F WCI  24
CONWAY         FAIR      23  21  93 CALM      30.48F
MARION         FAIR      27  23  86 CALM      30.50R
HARTSVILLE     FAIR      30  19  64 NE3       30.48R
FLORENCE       CLEAR     27  22  81 CALM      30.49R
DARLINGTON     CLEAR     23  21  92 N5        30.50R WCI  17
CHARLESTON APT MOCLDY    36  26  67 NE7       30.43F WCI  30
WALTERBORO     CLOUDY    37  25  60 NE6       30.45S WCI  33
BEAUFORT       MOCLDY    41  30  65 NE10      30.41F
HILTON HEAD    CLEAR     45  37  76 N13       30.40F


...EASTERN GEORGIA...

CITY           SKY/WX    TMP DP  RH WIND       PRES   REMARKS
AUGUSTA BUSH F MOCLDY    31  27  85 CALM      30.44F
AUGUSTA DANIEL CLOUDY    36  23  59 CALM      30.44S
THOMSON        CLOUDY    29  29 100 CALM      30.48R
WASHINGTON     FAIR      30  30 100 CALM      30.43S
CLAXTON        CLOUDY    41  30  63 N6        30.40F
SYLVANIA       CLOUDY   N/A N/A N/A NE5       30.43S
STATESBORO     CLOUDY    40  29  66 NE3       30.41F
SAVANNAH       CLEAR     41  30  65 NE10      30.39F


...SOUTHERN NORTH CAROLINA...

CITY           SKY/WX    TMP DP  RH WIND       PRES   REMARKS
CHARLOTTE      CLEAR     25  19  78 CALM      30.46S
MONROE         CLOUDY    23  17  78 CALM      30.45S
WADESBORO      CLOUDY    21  19  91 CALM      30.49S
ROCKINGHAM     SUNNY     23  21  94 CALM      30.48S
RUTHERFORDTON  CLOUDY    22  20  89 CALM      30.44F
ASHEVILLE      CLOUDY    23  15  71 CALM      30.37F

$$



USA.gov is the U.S. government's official web portal to all federal, state and local government web resources and services.